Wind_Speed
1 4 3 5 6 5 2 1 4 2 3 5 8 8 10 25 24 20 22 25 25 23 18 16 12 8 5 4 6 9 9 12 14 18 19 19 23 27 27 26 25 21 21 22
4 2 3 3 3 3 3 3 6 3 2 1 6 13 11 20 24 31 26 22 26 22 25 18 11 10 10 10 8 10 13 15 14 18 18 21 25 29 29 28 27 26 27 26
5 1 3 1 1 2 3 1 3 2 2 4 3 8 5 3 12 25 21 20 21 24 26 16 12 11 10 8 7 12 15 17 16 16 17 22 26 30 30 31 32 31 29 28
1 3 2 1 2 1 2 1 2 4 5 3 3 5 6 4 6 11 20 18 19 22 21 13 15 16 12 8 9 13 17 18 17 18 20 24 28 31 32 33 33 34 32 31
5 3 2 2 1 2 3 1 1 1 1 4 3 1 7 7 4 8 16 20 18 17 22 16 15 13 14 14 16 18 18 19 21 19 22 25 30 31 31 32 33 33 34 32
4 2 2 2 2 3 3 2 3 2 2 2 6 7 5 4 7 5 15 24 23 19 19 17 18 18 16 16 18 18 19 20 18 20 24 29 30 31 33 34 35 37 38 37
3 2 2 2 1 2 3 5 3 2 2 5 3 5 7 2 3 5 17 29 27 23 19 18 19 16 14 16 17 18 21 20 19 23 29 29 30 31 32 36 38 40 40 39
4 2 2 1 1 2 4 6 4 4 3 4 5 5 3 2 10 11 15 26 24 23 21 20 17 16 15 16 19 22 18 19 23 28 27 29 31 35 38 40 40 40 40 39
3 2 1 4 2 2 1 2 4 1 2 1 4 1 3 4 4 8 10 17 18 20 19 17 17 16 17 18 18 17 18 23 26 25 29 34 37 38 39 39 40 40 39 36
1 0 2 1 1 1 2 2 2 2 2 4 5 1 2 4 4 4 8 12 12 13 15 16 18 19 18 17 15 17 21 22 25 29 34 37 37 37 39 40 41 36 36 38
2 3 2 2 4 5 1 2 2 2 5 4 1 5 5 1 1 4 3 8 14 19 20 20 20 20 18 14 17 18 20 25 30 35 38 38 39 41 41 35 34 35 35 36
0 3 3 5 1 1 1 3 4 4 4 1 4 5 2 8 10 10 5 4 1 12 13 16 21 17 14 14 15 21 26 30 35 38 38 40 41 39 38 38 40 40 39 42
2 1 2 4 4 2 1 3 3 4 3 4 4 5 3 6 5 2 3 3 5 6 7 6 8 13 13 17 22 27 31 36 38 39 40 39 38 38 41 39 37 42 45 39
1 1 5 5 3 3 2 3 1 4 3 3 6 4 7 5 3 4 3 3 5 7 10 14 13 15 18 21 24 30 32 33 35 37 35 34 36 39 37 42 46 41 40 40
3 2 2 4 6 4 5 7 7 7 6 4 4 7 7 5 2 1 2 5 6 10 11 11 13 16 18 21 30 30 32 34 34 34 35 38 41 40 43 38 37 40 40 40
1 2 3 4 4 3 5 9 8 6 6 8 7 8 2 4 7 11 11 14 19 25 13 11 12 16 21 29 29 31 32 30 32 34 39 37 39 42 41 40 40 45 43 44
4 2 3 4 6 6 6 3 2 4 3 2 2 5 5 6 10 13 19 23 22 14 5 11 16 21 26 27 29 30 28 30 33 36 36 37 41 42 39 39 45 45 43 44
2 3 2 3 5 2 3 4 6 3 7 7 6 7 8 9 15 19 17 12 16 16 17 20 23 26 28 29 28 27 29 33 34 35 38 39 42 42 41 43 44 44 44 43
2 3 1 2 2 7 1 4 3 3 2 3 3 7 13 20 16 17 12 24 25 13 17 21 22 25 27 27 25 27 31 31 33 35 39 42 42 41 45 46 46 47 47 47
4 5 4 2 3 5 3 2 1 3 3 1 6 7 9 15 8 4 19 27 25 20 19 19 22 26 27 26 26 27 29 30 35 40 39 40 40 43 45 46 47 48 47 48
1 2 4 2 3 7 5 3 0 3 5 11 8 8 12 4 12 26 29 28 24 17 16 19 24 25 24 25 26 27 31 35 38 37 38 42 42 43 44 46 46 47 44 45
6 6 4 2 1 6 6 2 1 3 9 16 18 19 20 21 26 29 28 25 15 15 17 22 24 24 24 25 26 30 33 35 33 37 41 43 43 42 43 44 45 40 38 36
1 6 4 8 6 5 2 10 7 10 12 16 20 22 22 25 28 26 28 17 13 14 17 21 22 23 23 24 27 30 30 32 37 38 41 41 43 43 42 41 37 36 32 32
4 2 2 3 3 4 9 7 15 19 19 21 21 22 24 26 25 25 20 15 14 17 20 21 22 22 23 26 26 26 29 32 36 38 41 41 43 41 39 36 33 30 29 30
6 2 3 4 3 3 5 13 15 16 21 27 27 27 26 26 25 23 16 13 15 18 19 20 19 21 24 25 25 27 28 32 34 36 38 41 41 40 38 32 29 27 26 27
11 7 4 5 6 5 2 8 13 18 19 22 24 27 28 22 23 18 13 13 16 17 17 18 19 21 22 23 25 27 31 31 32 36 37 39 38 37 33 30 28 24 23 20
Wind_Direction
202 74 206 234 214 206 186 242 275 230 238 163 227 248 220 205 198 200 195 187 183 186 195 195 199 195 184 198 251 278 298 329 340 342 341 340 339 338 334 329 329 330 325 315
30 228 214 118 66 46 16 338 295 28 113 133 257 257 249 190 199 197 196 192 187 189 179 194 216 222 212 216 255 278 298 316 327 334 335 326 324 325 323 327 328 326 321 319
157 210 135 81 40 354 14 25 316 234 294 280 311 298 301 190 177 197 201 200 195 192 189 203 217 227 225 238 261 275 295 301 310 318 311 309 314 321 325 324 323 322 323 316
172 145 105 134 242 296 261 15 35 2 42 246 51 283 308 168 152 177 195 202 202 195 196 207 213 219 210 209 237 265 282 295 299 305 305 311 319 318 319 319 318 318 318 318
248 149 150 191 244 4 185 62 9 342 324 1 286 166 275 93 176 204 202 202 203 204 192 181 184 216 224 250 261 270 278 285 294 307 305 310 313 312 314 313 312 311 312 311
214 144 84 130 92 73 157 341 357 51 79 353 239 165 274 205 202 201 202 202 206 202 198 211 227 235 238 256 272 278 288 298 306 303 304 309 312 312 311 310 309 309 309 307
160 179 75 97 99 16 79 61 348 352 2 229 323 120 251 201 66 203 194 201 202 206 210 214 209 219 248 265 263 276 295 303 298 299 305 310 308 307 306 307 307 307 307 307
156 307 13 56 110 172 192 155 155 236 215 261 326 243 284 12 36 27 207 201 197 203 210 210 221 237 249 254 272 290 291 289 298 304 305 305 305 305 307 307 307 307 306 305
33 322 336 61 2 107 274 179 174 169 270 99 237 109 336 44 29 65 113 171 182 186 198 216 228 241 250 266 281 283 286 298 300 300 303 306 307 307 307 308 307 307 306 307
179 308 210 225 19 275 162 251 62 12 258 283 309 31 253 259 215 115 113 145 175 201 218 225 234 246 255 267 273 284 293 295 299 303 306 307 307 306 308 307 307 308 305 308
329 101 279 65 198 193 110 282 208 142 157 184 259 279 297 128 278 176 196 213 221 228 233 236 252 248 258 259 281 284 291 296 301 305 306 305 306 308 308 308 305 304 306 301
302 147 234 234 189 91 190 196 150 126 276 233 144 272 336 120 105 115 135 137 138 231 247 254 252 249 256 278 276 291 297 301 305 307 306 308 309 310 309 307 304 303 300 300
337 286 6 338 354 342 152 240 196 127 88 224 124 261 231 104 99 214 225 314 325 310 323 332 234 255 267 282 293 298 302 304 305 306 307 310 312 310 308 310 306 305 307 310
46 248 166 194 192 196 268 231 229 138 124 212 222 259 287 354 103 60 51 354 338 330 309 290 272 281 286 290 298 305 306 307 309 311 314 312 309 311 310 307 308 315 318 310
111 215 329 271 267 238 245 256 249 217 219 223 236 272 270 253 144 49 6 38 1 332 298 270 269 276 286 300 310 307 310 312 314 314 313 312 311 311 314 318 317 315 309 308
53 265 16 297 338 23 274 271 262 244 255 262 265 279 333 25 18 17 6 341 325 318 293 271 278 291 304 314 311 313 315 316 317 314 314 319 318 319 324 318 315 315 309 310
141 111 58 275 351 339 324 261 178 206 178 223 282 259 347 23 31 2 343 327 318 318 271 294 305 311 313 314 316 317 319 316 315 318 324 323 321 323 318 314 315 318 312 311
114 114 116 252 12 3 238 20 65 90 38 25 47 25 22 2 353 346 336 344 334 315 301 301 306 310 314 317 320 321 319 318 322 324 323 321 323 323 320 319 318 319 318 314
74 101 94 128 196 293 55 351 27 68 109 35 45 354 352 345 329 339 331 338 329 296 289 297 305 314 318 323 324 320 320 324 321 319 321 324 326 320 321 321 320 319 316 315
64 79 117 95 139 225 255 216 6 104 288 259 27 0 341 347 336 265 321 318 313 285 291 300 313 320 321 324 323 324 324 319 319 321 326 329 323 321 322 321 320 319 317 316
96 37 169 206 227 284 253 204 188 88 256 359 15 346 325 281 283 307 315 312 307 290 300 310 318 321 324 325 326 323 320 321 323 325 329 331 326 326 327 323 323 322 322 320
166 147 206 135 117 280 207 215 351 221 340 340 333 328 318 312 310 312 316 311 295 292 303 312 318 322 324 326 324 321 324 327 332 337 333 331 329 332 329 325 326 328 329 329
217 187 187 174 211 200 233 90 31 356 342 334 327 325 323 318 320 318 320 307 295 303 313 317 319 322 325 326 326 327 333 335 337 332 332 333 335 335 330 328 334 335 335 336
301 141 205 66 250 138 87 27 353 349 348 339 339 329 326 322 324 317 313 300 299 306 312 316 321 322 327 328 332 336 335 333 333 334 335 338 337 334 337 341 344 343 339 339
220 8 208 259 308 110 12 357 351 339 326 324 327 327 326 324 320 322 297 294 304 310 314 318 322 325 328 333 337 336 335 332 335 337 338 338 338 338 342 344 350 352 352 344
213 212 168 231 167 184 254 359 342 344 342 337 330 324 325 321 316 316 287 299 309 311 315 321 324 326 333 336 337 336 337 337 340 340 339 340 340 345 346 348 352 3 360 354
Height
1525 1533 1539 1534 1531 1531 1532 1535 1539 1530 1525 1530 1533 1531 1528 1528 1531 1533 1535 1537 1539 1542 1545 1547 1550 1552 1553 1553 1552 1551 1549 1549 1547 1545 1543 1542 1541 1539 1537 1535 1533 1531 1529 1527
1531 1537 1527 1525 1526 1528 1530 1535 1538 1532 1529 1533 1532 1527 1520 1521 1521 1524 1528 1532 1536 1539 1542 1545 1547 1549 1550 1550 1550 1549 1548 1547 1545 1543 1541 1540 1538 1536 1534 1531 1529 1527 1525 1522
1532 1528 1525 1525 1527 1530 1531 1536 1537 1537 1531 1529 1530 1529 1518 1515 1519 1524 1528 1531 1534 1535 1538 1542 1543 1545 1546 1548 1547 1547 1546 1544 1543 1541 1540 1538 1536 1533 1529 1527 1524 1522 1520 1517
1524 1525 1525 1527 1530 1529 1537 1532 1533 1534 1540 1552 1530 1555 1526 1518 1521 1523 1526 1528 1531 1533 1536 1538 1540 1543 1544 1544 1544 1543 1543 1542 1541 1539 1537 1535 1531 1528 1525 1522 1519 1516 1514 1511
1530 1526 1527 1530 1529 1526 1533 1530 1533 1534 1542 1545 1539 1550 1531 1522 1525 1524 1523 1525 1528 1531 1533 1535 1539 1540 1541 1541 1541 1541 1540 1539 1538 1535 1533 1530 1527 1524 1520 1518 1514 1511 1508 1505
1526 1525 1525 1528 1528 1528 1529 1531 1534 1537 1547 1563 1538 1540 1533 1525 1517 1518 1518 1520 1524 1528 1531 1533 1535 1536 1537 1538 1538 1537 1536 1535 1533 1531 1529 1526 1522 1519 1515 1511 1507 1504 1501 1498
1526 1527 1526 1527 1530 1530 1531 1543 1562 1560 1565 1559 1524 1534 1523 1512 1510 1509 1511 1515 1520 1525 1528 1530 1531 1533 1534 1534 1534 1533 1532 1530 1529 1527 1524 1521 1518 1514 1510 1506 1501 1497 1493 1489
1538 1543 1531 1528 1531 1535 1536 1542 1560 1554 1560 1548 1526 1534 1523 1516 1511 1510 1509 1513 1519 1524 1527 1528 1529 1529 1530 1530 1530 1530 1528 1527 1525 1522 1519 1516 1512 1508 1504 1500 1495 1491 1486 1483
1541 1540 1531 1530 1530 1532 1534 1542 1536 1544 1541 1552 1537 1524 1520 1516 1513 1512 1512 1516 1520 1523 1524 1526 1526 1526 1527 1527 1527 1526 1525 1523 1520 1517 1513 1510 1506 1502 1497 1493 1488 1484 1479 1475
1534 1540 1530 1531 1531 1531 1532 1534 1546 1552 1553 1550 1540 1528 1530 1519 1517 1516 1518 1519 1521 1522 1523 1523 1524 1523 1524 1524 1523 1522 1520 1517 1514 1511 1507 1503 1499 1495 1490 1486 1481 1476 1472 1467
1532 1538 1536 1532 1535 1535 1539 1540 1537 1544 1552 1559 1560 1544 1518 1518 1517 1519 1519 1519 1519 1518 1518 1520 1520 1521 1521 1521 1520 1517 1514 1512 1508 1505 1501 1496 1492 1488 1483 1478 1474 1469 1463 1459
1535 1541 1544 1534 1530 1529 1529 1530 1536 1555 1545 1550 1565 1551 1521 1518 1517 1519 1520 1518 1517 1518 1520 1520 1520 1519 1519 1517 1515 1512 1510 1506 1503 1498 1494 1490 1485 1480 1475 1470 1465 1460 1454 1450
1537 1542 1551 1538 1536 1530 1531 1528 1528 1539 1551 1550 1566 1546 1520 1517 1517 1517 1517 1517 1517 1518 1518 1517 1517 1516 1514 1512 1510 1507 1504 1501 1497 1493 1488 1482 1477 1473 1467 1461 1456 1451 1445 1439
1537 1540 1543 1552 1538 1534 1533 1527 1526 1534 1566 1547 1545 1531 1523 1520 1519 1518 1518 1518 1518 1518 1517 1516 1514 1512 1510 1508 1505 1503 1500 1496 1492 1486 1481 1476 1471 1465 1459 1453 1448 1442 1436 1431
1538 1541 1536 1533 1532 1530 1530 1530 1529 1533 1534 1539 1528 1528 1522 1519 1518 1518 1518 1518 1518 1517 1515 1513 1510 1507 1505 1503 1501 1499 1495 1491 1485 1480 1476 1470 1464 1458 1452 1445 1439 1434 1429 1423
1537 1542 1538 1538 1528 1528 1529 1526 1526 1527 1526 1527 1526 1526 1517 1518 1517 1517 1517 1516 1515 1512 1510 1508 1506 1504 1502 1500 1497 1493 1489 1484 1479 1475 1470 1463 1457 1450 1443 1437 1431 1424 1418 1412
1539 1543 1550 1549 1538 1534 1537 1524 1520 1519 1518 1520 1524 1522 1519 1519 1518 1517 1515 1513 1510 1508 1507 1505 1503 1501 1499 1495 1492 1486 1482 1477 1473 1467 1461 1456 1450 1442 1436 1430 1423 1415 1407 1401
1539 1541 1549 1564 1547 1557 1527 1520 1519 1518 1523 1522 1522 1522 1521 1519 1517 1516 1514 1512 1510 1508 1506 1503 1500 1497 1494 1491 1487 1482 1478 1474 1468 1462 1456 1450 1442 1435 1429 1422 1414 1405 1399 1391
1538 1544 1554 1564 1568 1542 1521 1524 1524 1523 1525 1524 1522 1520 1518 1516 1513 1513 1512 1510 1507 1503 1500 1497 1495 1492 1490 1486 1482 1477 1473 1468 1463 1457 1451 1443 1436 1428 1421 1413 1404 1396 1388 1381
1540 1543 1553 1557 1571 1565 1527 1523 1522 1523 1538 1520 1519 1518 1517 1514 1517 1511 1509 1507 1503 1499 1496 1493 1491 1489 1486 1481 1477 1472 1467 1463 1457 1451 1444 1438 1431 1423 1414 1405 1396 1388 1381 1371
1549 1552 1559 1566 1570 1546 1525 1521 1521 1532 1536 1521 1519 1518 1516 1516 1513 1507 1504 1501 1498 1495 1492 1489 1487 1485 1482 1477 1473 1468 1463 1458 1452 1445 1438 1431 1425 1416 1407 1397 1389 1380 1372 1363
1541 1556 1555 1555 1560 1548 1520 1520 1523 1527 1522 1519 1517 1515 1512 1509 1505 1502 1499 1496 1493 1491 1488 1486 1483 1481 1478 1474 1469 1464 1459 1453 1446 1439 1432 1425 1417 1409 1400 1391 1382 1374 1366 1357
1534 1526 1534 1534 1533 1518 1517 1519 1521 1520 1518 1516 1513 1510 1507 1503 1500 1497 1494 1492 1489 1487 1485 1482 1480 1476 1474 1470 1466 1460 1454 1448 1441 1435 1427 1419 1411 1403 1395 1386 1377 1368 1361 1353
1517 1515 1522 1520 1513 1514 1515 1515 1515 1514 1512 1510 1508 1505 1503 1499 1496 1493 1490 1488 1485 1483 1481 1479 1476 1472 1469 1466 1461 1457 1450 1445 1438 1430 1422 1414 1406 1397 1389 1381 1373 1365 1358 1350
1517 1514 1513 1514 1511 1511 1511 1511 1511 1510 1508 1506 1503 1501 1498 1494 1491 1489 1486 1484 1482 1480 1478 1476 1472 1468 1465 1461 1457 1453 1447 1441 1434 1427 1419 1411 1403 1394 1385 1377 1371 1364 1358 1351
1507 1506 1513 1513 1509 1509 1511 1511 1509 1508 1507 1505 1501 1496 1494 1491 1487 1484 1483 1480 1479 1477 1475 1472 1468 1465 1461 1457 1454 1449 1444 1438 1431 1423 1416 1408 1400 1391 1384 1376 1368 1364 1359 1352